TimePDT,TemperatureF,Dew PointF,Humidity,Sea Level PressureIn,VisibilityMPH,Wind Direction,Wind SpeedMPH,Gust SpeedMPH,PrecipitationIn,Events,Conditions,WindDirDegrees,DateUTC
12:53 AM,75.9,64.9,69,29.89,10.0,Calm,Calm,-,N/A,,Clear,0,2012-09-10 07:53:00
1:53 AM,75.9,64.0,67,29.85,10.0,Calm,Calm,-,N/A,,Clear,0,2012-09-10 08:53:00
2:53 AM,75.9,64.0,67,29.84,10.0,Calm,Calm,-,N/A,,Overcast,0,2012-09-10 09:53:00
3:53 AM,75.9,64.0,67,29.83,10.0,Calm,Calm,-,N/A,,Mostly Cloudy,0,2012-09-10 10:53:00
4:53 AM,75.9,64.0,67,29.83,10.0,Calm,Calm,-,N/A,,Mostly Cloudy,0,2012-09-10 11:53:00
5:53 AM,75.0,64.9,71,29.84,10.0,Calm,Calm,-,N/A,,Overcast,0,2012-09-10 12:53:00
6:53 AM,75.9,64.9,69,29.86,10.0,Calm,Calm,-,N/A,,Mostly Cloudy,0,2012-09-10 13:53:00
7:53 AM,78.1,64.9,64,29.87,10.0,Calm,Calm,-,N/A,,Partly Cloudy,0,2012-09-10 14:53:00
8:53 AM,81.0,66.0,60,29.88,10.0,SW,5.8,-,N/A,,Overcast,230,2012-09-10 15:53:00
9:53 AM,82.9,66.0,56,29.89,10.0,SSW,4.6,-,N/A,,Overcast,200,2012-09-10 16:53:00
10:53 AM,84.9,66.0,53,29.89,10.0,SSW,5.8,-,N/A,,Partly Cloudy,200,2012-09-10 17:53:00
12:53 PM,88.0,66.9,49,29.88,10.0,Variable,5.8,-,N/A,,Clear,0,2012-09-10 19:53:00
1:53 PM,89.1,64.9,45,29.86,10.0,SSW,8.1,-,N/A,,Clear,210,2012-09-10 20:53:00
2:53 PM,90.0,64.0,42,29.84,10.0,SSW,8.1,-,N/A,,Partly Cloudy,210,2012-09-10 21:53:00
3:53 PM,88.0,64.0,45,29.83,10.0,SSW,9.2,-,N/A,,Clear,200,2012-09-10 22:53:00
4:53 PM,86.0,63.0,46,29.82,10.0,SSW,11.5,-,N/A,,Clear,200,2012-09-10 23:53:00
5:53 PM,81.0,64.0,56,29.82,10.0,SW,8.1,-,N/A,,Clear,230,2012-09-11 00:53:00
6:53 PM,79.0,64.9,62,29.82,10.0,SW,4.6,-,N/A,,Clear,230,2012-09-11 01:53:00
7:53 PM,77.0,66.0,69,29.83,10.0,Variable,4.6,-,N/A,,Clear,0,2012-09-11 02:53:00
8:53 PM,75.9,66.9,74,29.86,10.0,SSW,3.5,-,N/A,,Clear,210,2012-09-11 03:53:00
9:53 PM,75.9,66.0,71,29.86,10.0,Calm,Calm,-,N/A,,Clear,0,2012-09-11 04:53:00
10:53 PM,75.9,66.9,74,29.87,10.0,Calm,Calm,-,N/A,,Clear,0,2012-09-11 05:53:00
11:53 PM,75.9,66.9,74,29.87,10.0,Calm,Calm,-,N/A,,Clear,0,2012-09-11 06:53:00